Year,Month,Day,Hour,Minute,Value (Times are PST for temperature in C)
2014,06,10,00,00,11.40
2014,06,10,00,01,11.40
2014,06,10,00,02,11.40
2014,06,10,00,03,11.40
2014,06,10,00,04,11.40
2014,06,10,00,05,11.40
2014,06,10,00,06,11.40
2014,06,10,00,07,11.40
2014,06,10,00,08,11.40
2014,06,10,00,09,11.40
2014,06,10,00,10,11.40
2014,06,10,00,11,11.30
2014,06,10,00,12,11.30
2014,06,10,00,13,11.30
2014,06,10,00,14,11.40
2014,06,10,00,15,11.30
2014,06,10,00,16,11.30
2014,06,10,00,17,11.30
2014,06,10,00,18,11.30
2014,06,10,00,19,11.30
2014,06,10,00,20,11.30
2014,06,10,00,21,11.40
2014,06,10,00,22,11.40
2014,06,10,00,23,11.40
2014,06,10,00,24,11.40
2014,06,10,00,25,11.40
2014,06,10,00,26,11.30
2014,06,10,00,27,11.40
2014,06,10,00,28,11.30
2014,06,10,00,29,11.30
2014,06,10,00,30,11.30
2014,06,10,00,31,11.30
2014,06,10,00,32,11.30
2014,06,10,00,33,11.30
2014,06,10,00,34,11.30
2014,06,10,00,35,11.30
2014,06,10,00,36,11.30
2014,06,10,00,37,11.30
2014,06,10,00,38,11.30
2014,06,10,00,39,11.30
2014,06,10,00,40,11.30
2014,06,10,00,41,11.30
2014,06,10,00,42,11.30
2014,06,10,00,43,11.30
2014,06,10,00,44,11.30
2014,06,10,00,45,11.30
2014,06,10,00,46,11.30
2014,06,10,00,47,11.30
2014,06,10,00,48,11.30
2014,06,10,00,49,11.30
2014,06,10,00,50,11.30
2014,06,10,00,51,11.30
2014,06,10,00,52,11.30
2014,06,10,00,53,11.30
2014,06,10,00,54,11.30
2014,06,10,00,55,11.30
2014,06,10,00,56,11.30
2014,06,10,00,57,11.30
2014,06,10,00,58,11.30
2014,06,10,00,59,11.30
2014,06,10,01,00,11.30
2014,06,10,01,01,11.30
2014,06,10,01,02,11.30
2014,06,10,01,03,11.30
2014,06,10,01,04,11.30
2014,06,10,01,05,11.30
2014,06,10,01,06,11.30
2014,06,10,01,07,11.30
2014,06,10,01,08,11.30
2014,06,10,01,09,11.30
2014,06,10,01,10,11.30
2014,06,10,01,11,11.30
2014,06,10,01,12,11.20
2014,06,10,01,13,11.20
2014,06,10,01,14,11.20
2014,06,10,01,15,11.20
2014,06,10,01,16,11.20
2014,06,10,01,17,11.20
2014,06,10,01,18,11.20
2014,06,10,01,19,11.20
2014,06,10,01,20,11.20
2014,06,10,01,21,11.20
2014,06,10,01,22,11.20
2014,06,10,01,23,11.20
2014,06,10,01,24,11.20
2014,06,10,01,25,11.20
2014,06,10,01,26,11.20
2014,06,10,01,27,11.20
2014,06,10,01,28,11.20
2014,06,10,01,29,11.20
2014,06,10,01,30,11.20
2014,06,10,01,31,11.20
2014,06,10,01,32,11.20
2014,06,10,01,33,11.20
2014,06,10,01,34,11.20
2014,06,10,01,35,11.20
2014,06,10,01,36,11.20
2014,06,10,01,37,11.20
2014,06,10,01,38,11.20
2014,06,10,01,39,11.20
2014,06,10,01,40,11.20
2014,06,10,01,41,11.20
2014,06,10,01,42,11.20
2014,06,10,01,43,11.20
2014,06,10,01,44,11.20
2014,06,10,01,45,11.20
2014,06,10,01,46,11.20
2014,06,10,01,47,11.20
2014,06,10,01,48,11.20
2014,06,10,01,49,11.20
2014,06,10,01,50,11.20
2014,06,10,01,51,11.20
2014,06,10,01,52,11.20
2014,06,10,01,53,11.20
2014,06,10,01,54,11.20
2014,06,10,01,55,11.20
2014,06,10,01,56,11.20
2014,06,10,01,57,11.20
2014,06,10,01,58,11.10
2014,06,10,01,59,11.10
2014,06,10,02,00,11.10
2014,06,10,02,01,11.10
2014,06,10,02,02,11.10
2014,06,10,02,03,11.10
2014,06,10,02,04,11.10
2014,06,10,02,05,11.10
2014,06,10,02,06,11.10
2014,06,10,02,07,11.10
2014,06,10,02,08,11.10
2014,06,10,02,09,11.10
2014,06,10,02,10,11.10
2014,06,10,02,11,11.10
2014,06,10,02,12,11.10
2014,06,10,02,13,11.10
2014,06,10,02,14,11.10
2014,06,10,02,15,11.10
2014,06,10,02,16,11.10
2014,06,10,02,17,11.10
2014,06,10,02,18,11.10
2014,06,10,02,19,11.00
2014,06,10,02,20,11.00
2014,06,10,02,21,11.00
2014,06,10,02,22,11.00
2014,06,10,02,23,11.00
2014,06,10,02,24,11.00
2014,06,10,02,25,11.00
2014,06,10,02,26,11.00
2014,06,10,02,27,11.00
2014,06,10,02,28,11.00
2014,06,10,02,29,11.00
2014,06,10,02,30,11.00
2014,06,10,02,31,11.00
2014,06,10,02,32,11.00
2014,06,10,02,33,11.00
2014,06,10,02,34,11.00
2014,06,10,02,35,11.00
2014,06,10,02,36,11.00
2014,06,10,02,37,11.00
2014,06,10,02,38,10.90
2014,06,10,02,39,10.90
2014,06,10,02,40,10.90
2014,06,10,02,41,10.90
2014,06,10,02,42,10.90
2014,06,10,02,43,10.90
2014,06,10,02,44,11.00
2014,06,10,02,45,11.00
2014,06,10,02,46,11.00
2014,06,10,02,47,11.00
2014,06,10,02,48,10.90
2014,06,10,02,49,10.90
2014,06,10,02,50,10.90
2014,06,10,02,51,10.90
2014,06,10,02,52,10.90
2014,06,10,02,53,10.90
2014,06,10,02,54,10.90
2014,06,10,02,55,10.90
2014,06,10,02,56,10.90
2014,06,10,02,57,10.90
2014,06,10,02,58,10.90
2014,06,10,02,59,10.90
2014,06,10,03,00,10.90
2014,06,10,03,01,10.90
2014,06,10,03,02,10.90
2014,06,10,03,03,10.90
2014,06,10,03,04,10.80
2014,06,10,03,05,10.80
2014,06,10,03,06,10.80
2014,06,10,03,07,10.80
2014,06,10,03,08,10.80
2014,06,10,03,09,10.80
2014,06,10,03,10,10.80
2014,06,10,03,11,10.80
2014,06,10,03,12,10.80
2014,06,10,03,13,10.80
2014,06,10,03,14,10.80
2014,06,10,03,15,10.80
2014,06,10,03,16,10.80
2014,06,10,03,17,10.80
2014,06,10,03,18,10.80
2014,06,10,03,19,10.80
2014,06,10,03,20,10.80
2014,06,10,03,21,10.80
2014,06,10,03,22,10.80
2014,06,10,03,23,10.80
2014,06,10,03,24,10.80
2014,06,10,03,25,10.80
2014,06,10,03,26,10.80
2014,06,10,03,27,10.80
2014,06,10,03,28,10.80
2014,06,10,03,29,10.80
2014,06,10,03,30,10.80
2014,06,10,03,31,10.80
2014,06,10,03,32,10.80
2014,06,10,03,33,10.80
2014,06,10,03,34,10.80
2014,06,10,03,35,10.80
2014,06,10,03,36,10.80
2014,06,10,03,37,10.80
2014,06,10,03,38,10.80
2014,06,10,03,39,10.80
2014,06,10,03,40,10.80
2014,06,10,03,41,10.80
2014,06,10,03,42,10.80
2014,06,10,03,43,10.80
2014,06,10,03,44,10.80
2014,06,10,03,45,10.80
2014,06,10,03,46,10.80
2014,06,10,03,47,10.80
2014,06,10,03,48,10.80
2014,06,10,03,49,10.90
2014,06,10,03,50,10.90
2014,06,10,03,51,10.90
2014,06,10,03,52,10.90
2014,06,10,03,53,10.90
2014,06,10,03,54,10.90
2014,06,10,03,55,11.00
2014,06,10,03,56,11.00
2014,06,10,03,57,11.00
2014,06,10,03,58,11.00
2014,06,10,03,59,11.10
2014,06,10,04,00,11.10
2014,06,10,04,01,11.10
2014,06,10,04,02,11.10
2014,06,10,04,03,11.10
2014,06,10,04,04,11.10
2014,06,10,04,05,11.10
2014,06,10,04,06,11.10
2014,06,10,04,07,11.10
2014,06,10,04,08,11.10
2014,06,10,04,09,11.10
2014,06,10,04,10,11.10
2014,06,10,04,11,11.10
2014,06,10,04,12,11.10
2014,06,10,04,13,11.10
2014,06,10,04,14,11.10
2014,06,10,04,15,11.20
2014,06,10,04,16,11.20
2014,06,10,04,17,11.20
2014,06,10,04,18,11.20
2014,06,10,04,19,11.20
2014,06,10,04,20,11.20
2014,06,10,04,21,11.20
2014,06,10,04,22,11.20
2014,06,10,04,23,11.20
2014,06,10,04,24,11.20
2014,06,10,04,25,11.20
2014,06,10,04,26,11.20
2014,06,10,04,27,11.20
2014,06,10,04,28,11.20
2014,06,10,04,29,11.20
2014,06,10,04,30,11.20
2014,06,10,04,31,11.20
2014,06,10,04,32,11.20
2014,06,10,04,33,11.30
2014,06,10,04,34,11.30
2014,06,10,04,35,11.30
2014,06,10,04,36,11.30
2014,06,10,04,37,11.30
2014,06,10,04,38,11.30
2014,06,10,04,39,11.30
2014,06,10,04,40,11.30
2014,06,10,04,41,11.30
2014,06,10,04,42,11.30
2014,06,10,04,43,11.30
2014,06,10,04,44,11.30
2014,06,10,04,45,11.30
2014,06,10,04,46,11.30
2014,06,10,04,47,11.30
2014,06,10,04,48,11.30
2014,06,10,04,49,11.30
2014,06,10,04,50,11.30
2014,06,10,04,51,11.30
2014,06,10,04,52,11.20
2014,06,10,04,53,11.20
2014,06,10,04,54,11.20
2014,06,10,04,55,11.20
2014,06,10,04,56,11.20
2014,06,10,04,57,11.20
2014,06,10,04,58,11.20
2014,06,10,04,59,11.20
2014,06,10,05,00,11.20
2014,06,10,05,01,11.20
2014,06,10,05,02,11.20
2014,06,10,05,03,11.20
2014,06,10,05,04,11.20
2014,06,10,05,05,11.20
2014,06,10,05,06,11.20
2014,06,10,05,07,11.20
2014,06,10,05,08,11.20
2014,06,10,05,09,11.20
2014,06,10,05,10,11.20
2014,06,10,05,11,11.20
2014,06,10,05,12,11.30
2014,06,10,05,13,11.30
2014,06,10,05,14,11.30
2014,06,10,05,15,11.30
2014,06,10,05,16,11.30
2014,06,10,05,17,11.30
2014,06,10,05,18,11.30
2014,06,10,05,19,11.30
2014,06,10,05,20,11.30
2014,06,10,05,21,11.30
2014,06,10,05,22,11.30
2014,06,10,05,23,11.30
2014,06,10,05,24,11.30
2014,06,10,05,25,11.30
2014,06,10,05,26,11.30
2014,06,10,05,27,11.30
2014,06,10,05,28,11.30
2014,06,10,05,29,11.30
2014,06,10,05,30,11.30
2014,06,10,05,31,11.30
2014,06,10,05,32,11.30
2014,06,10,05,33,11.30
2014,06,10,05,34,11.30
2014,06,10,05,35,11.30
2014,06,10,05,36,11.30
2014,06,10,05,37,11.30
2014,06,10,05,38,11.30
2014,06,10,05,39,11.40
2014,06,10,05,40,11.40
2014,06,10,05,41,11.40
2014,06,10,05,42,11.40
2014,06,10,05,43,11.30
2014,06,10,05,44,11.30
2014,06,10,05,45,11.40
2014,06,10,05,46,11.30
2014,06,10,05,47,11.30
2014,06,10,05,48,11.30
2014,06,10,05,49,11.30
2014,06,10,05,50,11.30
2014,06,10,05,51,11.30
2014,06,10,05,52,11.30
2014,06,10,05,53,11.30
2014,06,10,05,54,11.30
2014,06,10,05,55,11.30
2014,06,10,05,56,11.30
2014,06,10,05,57,11.30
2014,06,10,05,58,11.30
2014,06,10,05,59,11.30
2014,06,10,06,00,11.30
2014,06,10,06,01,11.30
2014,06,10,06,02,11.30
2014,06,10,06,03,11.30
2014,06,10,06,04,11.30
2014,06,10,06,05,11.30
2014,06,10,06,06,11.30
2014,06,10,06,07,11.30
2014,06,10,06,08,11.40
2014,06,10,06,09,11.40
2014,06,10,06,10,11.40
2014,06,10,06,11,11.40
2014,06,10,06,12,11.40
2014,06,10,06,13,11.40
2014,06,10,06,14,11.40
2014,06,10,06,15,11.40
2014,06,10,06,16,11.40
2014,06,10,06,17,11.40
2014,06,10,06,18,11.50
2014,06,10,06,19,11.50
2014,06,10,06,20,11.50
2014,06,10,06,21,11.50
2014,06,10,06,22,11.50
2014,06,10,06,23,11.60
2014,06,10,06,24,11.60
2014,06,10,06,25,11.60
2014,06,10,06,26,11.60
2014,06,10,06,27,11.60
2014,06,10,06,28,11.60
2014,06,10,06,29,11.60
2014,06,10,06,30,11.70
2014,06,10,06,31,11.70
2014,06,10,06,32,11.70
2014,06,10,06,33,11.70
2014,06,10,06,34,11.70
2014,06,10,06,35,11.70
2014,06,10,06,36,11.80
2014,06,10,06,37,11.80
2014,06,10,06,38,11.80
2014,06,10,06,39,11.80
2014,06,10,06,40,11.80
2014,06,10,06,41,11.80
2014,06,10,06,42,11.80
2014,06,10,06,43,11.80
2014,06,10,06,44,11.80
2014,06,10,06,45,11.90
2014,06,10,06,46,11.90
2014,06,10,06,47,11.90
2014,06,10,06,48,11.90
2014,06,10,06,49,11.90
2014,06,10,06,50,11.90
2014,06,10,06,51,11.90
2014,06,10,06,52,11.90
2014,06,10,06,53,11.90
2014,06,10,06,54,11.90
2014,06,10,06,55,11.90
2014,06,10,06,56,11.90
2014,06,10,06,57,11.90
2014,06,10,06,58,11.90
2014,06,10,06,59,11.90
2014,06,10,07,00,12.00
2014,06,10,07,01,12.00
2014,06,10,07,02,12.00
2014,06,10,07,03,12.00
2014,06,10,07,04,12.00
2014,06,10,07,05,12.00
2014,06,10,07,06,12.00
2014,06,10,07,07,12.10
2014,06,10,07,08,12.10
2014,06,10,07,09,12.10
2014,06,10,07,10,12.10
2014,06,10,07,11,12.10
2014,06,10,07,12,12.10
2014,06,10,07,13,12.10
2014,06,10,07,14,12.10
2014,06,10,07,15,12.10
2014,06,10,07,16,12.10
2014,06,10,07,17,12.10
2014,06,10,07,18,12.10
2014,06,10,07,19,12.10
2014,06,10,07,20,12.10
2014,06,10,07,21,12.10
2014,06,10,07,22,12.10
2014,06,10,07,23,12.10
2014,06,10,07,24,12.10
2014,06,10,07,25,12.10
2014,06,10,07,26,12.10
2014,06,10,07,27,12.10
2014,06,10,07,28,12.10
2014,06,10,07,29,12.00
2014,06,10,07,30,12.00
2014,06,10,07,31,12.00
2014,06,10,07,32,12.00
2014,06,10,07,33,12.00
2014,06,10,07,34,11.90
2014,06,10,07,35,11.90
2014,06,10,07,36,11.90
2014,06,10,07,37,11.80
2014,06,10,07,38,11.80
2014,06,10,07,39,11.80
2014,06,10,07,40,11.80
2014,06,10,07,41,11.70
2014,06,10,07,42,11.70
2014,06,10,07,43,11.70
2014,06,10,07,44,11.70
2014,06,10,07,45,11.70
2014,06,10,07,46,11.70
2014,06,10,07,47,11.70
2014,06,10,07,48,11.70
2014,06,10,07,49,11.70
2014,06,10,07,50,11.70
2014,06,10,07,51,11.70
2014,06,10,07,52,11.70
2014,06,10,07,53,11.70
2014,06,10,07,54,11.70
2014,06,10,07,55,11.70
2014,06,10,07,56,11.70
2014,06,10,07,57,11.80
2014,06,10,07,58,11.80
2014,06,10,07,59,11.80
2014,06,10,08,00,11.80
2014,06,10,08,01,11.80
2014,06,10,08,02,11.80
2014,06,10,08,03,11.80
2014,06,10,08,04,11.80
2014,06,10,08,05,11.80
2014,06,10,08,06,11.80
2014,06,10,08,07,11.80
2014,06,10,08,08,11.80
2014,06,10,08,09,11.80
2014,06,10,08,10,11.80
2014,06,10,08,11,11.80
2014,06,10,08,12,11.80
2014,06,10,08,13,11.80
2014,06,10,08,14,11.80
2014,06,10,08,15,11.90
2014,06,10,08,16,11.90
2014,06,10,08,17,11.90
2014,06,10,08,18,12.00
2014,06,10,08,19,12.00
2014,06,10,08,20,12.10
2014,06,10,08,21,12.10
2014,06,10,08,22,12.20
2014,06,10,08,23,12.20
2014,06,10,08,24,12.20
2014,06,10,08,25,12.20
2014,06,10,08,26,12.30
2014,06,10,08,27,12.30
2014,06,10,08,28,12.30
2014,06,10,08,29,12.30
2014,06,10,08,30,12.30
2014,06,10,08,31,12.30
2014,06,10,08,32,12.30
2014,06,10,08,33,12.30
2014,06,10,08,34,12.30
2014,06,10,08,35,12.40
2014,06,10,08,36,12.40
2014,06,10,08,37,12.40
2014,06,10,08,38,12.40
2014,06,10,08,39,12.40
2014,06,10,08,40,12.40
2014,06,10,08,41,12.40
2014,06,10,08,42,12.50
2014,06,10,08,43,12.50
2014,06,10,08,44,12.60
2014,06,10,08,45,12.60
2014,06,10,08,46,12.60
2014,06,10,08,47,12.60
2014,06,10,08,48,12.60
2014,06,10,08,49,12.70
2014,06,10,08,50,12.70
2014,06,10,08,51,12.70
2014,06,10,08,52,12.70
2014,06,10,08,53,12.70
2014,06,10,08,54,12.80
2014,06,10,08,55,12.80
2014,06,10,08,56,12.80
2014,06,10,08,57,12.80
2014,06,10,08,58,12.80
2014,06,10,08,59,12.80
2014,06,10,09,00,12.90
2014,06,10,09,01,13.00
2014,06,10,09,02,13.00
2014,06,10,09,03,13.10
2014,06,10,09,04,13.10
2014,06,10,09,05,13.20
2014,06,10,09,06,13.20
2014,06,10,09,07,13.20
2014,06,10,09,08,13.20
2014,06,10,09,09,13.30
2014,06,10,09,10,13.30
2014,06,10,09,11,13.40
2014,06,10,09,12,13.50
2014,06,10,09,13,13.50
2014,06,10,09,14,13.60
2014,06,10,09,15,13.60
2014,06,10,09,16,13.70
2014,06,10,09,17,13.80
2014,06,10,09,18,13.80
2014,06,10,09,19,13.90
2014,06,10,09,20,13.90
2014,06,10,09,21,14.00
2014,06,10,09,22,14.10
2014,06,10,09,23,14.10
2014,06,10,09,24,14.20
2014,06,10,09,25,14.20
2014,06,10,09,26,14.20
2014,06,10,09,27,14.20
2014,06,10,09,28,14.20
2014,06,10,09,29,14.20
2014,06,10,09,30,14.20
2014,06,10,09,31,14.30
2014,06,10,09,32,14.30
2014,06,10,09,33,14.30
2014,06,10,09,34,14.30
2014,06,10,09,35,14.30
2014,06,10,09,36,14.30
2014,06,10,09,37,14.40
2014,06,10,09,38,14.40
2014,06,10,09,39,14.50
2014,06,10,09,40,14.50
2014,06,10,09,41,14.50
2014,06,10,09,42,14.50
2014,06,10,09,43,14.60
2014,06,10,09,44,14.60
2014,06,10,09,45,14.60
2014,06,10,09,46,14.60
2014,06,10,09,47,14.70
2014,06,10,09,48,14.80
2014,06,10,09,49,14.90
2014,06,10,09,50,15.00
2014,06,10,09,51,15.00
2014,06,10,09,52,15.10
2014,06,10,09,53,15.10
2014,06,10,09,54,15.10
2014,06,10,09,55,15.10
2014,06,10,09,56,15.10
2014,06,10,09,57,15.10
2014,06,10,09,58,15.00
2014,06,10,09,59,15.00
2014,06,10,10,00,14.90
2014,06,10,10,01,14.90
2014,06,10,10,02,14.90
2014,06,10,10,03,14.90
2014,06,10,10,04,14.90
2014,06,10,10,05,14.90
2014,06,10,10,06,14.90
2014,06,10,10,07,14.90
2014,06,10,10,08,15.00
2014,06,10,10,09,15.10
2014,06,10,10,10,15.10
2014,06,10,10,11,15.20
2014,06,10,10,12,15.20
2014,06,10,10,13,15.20
2014,06,10,10,14,15.20
2014,06,10,10,15,15.20
2014,06,10,10,16,15.20
2014,06,10,10,17,15.20
2014,06,10,10,18,15.20
2014,06,10,10,19,15.30
2014,06,10,10,20,15.40
2014,06,10,10,21,15.40
2014,06,10,10,22,15.40
2014,06,10,10,23,15.50
2014,06,10,10,24,15.50
2014,06,10,10,25,15.50
2014,06,10,10,26,15.50
2014,06,10,10,27,15.60
2014,06,10,10,28,15.60
2014,06,10,10,29,15.60
2014,06,10,10,30,15.70
2014,06,10,10,31,15.70
2014,06,10,10,32,15.70
2014,06,10,10,33,15.70
2014,06,10,10,34,15.60
2014,06,10,10,35,15.60
2014,06,10,10,36,15.60
2014,06,10,10,37,15.60
2014,06,10,10,38,15.60
2014,06,10,10,39,15.70
2014,06,10,10,40,15.70
2014,06,10,10,41,15.70
2014,06,10,10,42,15.70
2014,06,10,10,43,15.70
2014,06,10,10,44,15.80
2014,06,10,10,45,15.80
2014,06,10,10,46,15.90
2014,06,10,10,47,15.90
2014,06,10,10,48,15.90
2014,06,10,10,49,15.90
2014,06,10,10,50,16.00
2014,06,10,10,51,16.00
2014,06,10,10,52,16.00
2014,06,10,10,53,16.00
2014,06,10,10,54,16.10
2014,06,10,10,55,16.10
2014,06,10,10,56,16.10
2014,06,10,10,57,16.20
2014,06,10,10,58,16.20
2014,06,10,10,59,16.20
2014,06,10,11,00,16.20
2014,06,10,11,01,16.20
2014,06,10,11,02,16.20
2014,06,10,11,03,16.30
2014,06,10,11,04,16.40
2014,06,10,11,05,16.40
2014,06,10,11,06,16.40
2014,06,10,11,07,16.40
2014,06,10,11,08,16.40
2014,06,10,11,09,16.40
2014,06,10,11,10,16.40
2014,06,10,11,11,16.40
2014,06,10,11,12,16.30
2014,06,10,11,13,16.30
2014,06,10,11,14,16.20
2014,06,10,11,15,16.20
2014,06,10,11,16,16.10
2014,06,10,11,17,16.10
2014,06,10,11,18,16.20
2014,06,10,11,19,16.30
2014,06,10,11,20,16.30
2014,06,10,11,21,16.30
2014,06,10,11,22,16.40
2014,06,10,11,23,16.40
2014,06,10,11,24,16.40
2014,06,10,11,25,16.50
2014,06,10,11,26,16.50
2014,06,10,11,27,16.40
2014,06,10,11,28,16.40
2014,06,10,11,29,16.30
2014,06,10,11,30,16.20
2014,06,10,11,31,16.20
2014,06,10,11,32,16.10
2014,06,10,11,33,16.10
2014,06,10,11,34,16.10
2014,06,10,11,35,16.10
2014,06,10,11,36,16.00
2014,06,10,11,37,16.00
2014,06,10,11,38,15.90
2014,06,10,11,39,15.90
2014,06,10,11,40,15.90
2014,06,10,11,41,15.80
2014,06,10,11,42,15.80
2014,06,10,11,43,15.80
2014,06,10,11,44,15.80
2014,06,10,11,45,15.80
2014,06,10,11,46,15.80
2014,06,10,11,47,15.90
2014,06,10,11,48,15.90
2014,06,10,11,49,15.90
2014,06,10,11,50,15.90
2014,06,10,11,51,15.90
2014,06,10,11,52,15.80
2014,06,10,11,53,15.80
2014,06,10,11,54,15.80
2014,06,10,11,55,15.80
2014,06,10,11,56,15.80
2014,06,10,11,57,15.90
2014,06,10,11,58,15.90
2014,06,10,11,59,15.90
2014,06,10,12,00,15.90
2014,06,10,12,01,15.90
2014,06,10,12,02,15.90
2014,06,10,12,03,15.90
2014,06,10,12,04,15.80
2014,06,10,12,05,15.80
2014,06,10,12,06,15.70
2014,06,10,12,07,15.70
2014,06,10,12,08,15.70
2014,06,10,12,09,15.70
2014,06,10,12,10,15.70
2014,06,10,12,11,15.70
2014,06,10,12,12,15.70
2014,06,10,12,13,15.70
2014,06,10,12,14,15.70
2014,06,10,12,15,15.70
2014,06,10,12,16,15.80
2014,06,10,12,17,15.80
2014,06,10,12,18,15.90
2014,06,10,12,19,16.00
2014,06,10,12,20,16.10
2014,06,10,12,21,16.20
2014,06,10,12,22,16.30
2014,06,10,12,23,16.30
2014,06,10,12,24,16.30
2014,06,10,12,25,16.40
2014,06,10,12,26,16.50
2014,06,10,12,27,16.60
2014,06,10,12,28,16.70
2014,06,10,12,29,16.70
2014,06,10,12,30,16.80
2014,06,10,12,31,16.80
2014,06,10,12,32,16.70
2014,06,10,12,33,16.60
2014,06,10,12,34,16.60
2014,06,10,12,35,16.60
2014,06,10,12,36,16.50
2014,06,10,12,37,16.50
2014,06,10,12,38,16.40
2014,06,10,12,39,16.50
2014,06,10,12,40,16.60
2014,06,10,12,41,16.60
2014,06,10,12,42,16.70
2014,06,10,12,43,16.70
2014,06,10,12,44,16.70
2014,06,10,12,45,16.80
2014,06,10,12,46,16.90
2014,06,10,12,47,16.90
2014,06,10,12,48,16.90
2014,06,10,12,49,16.80
2014,06,10,12,50,16.90
2014,06,10,12,51,16.90
2014,06,10,12,52,16.90
2014,06,10,12,53,16.90
2014,06,10,12,54,17.00
2014,06,10,12,55,17.00
2014,06,10,12,56,17.10
2014,06,10,12,57,17.20
2014,06,10,12,58,17.30
2014,06,10,12,59,17.50
2014,06,10,13,00,17.60
2014,06,10,13,01,17.70
2014,06,10,13,02,17.70
2014,06,10,13,03,17.80
2014,06,10,13,04,17.80
2014,06,10,13,05,17.80
2014,06,10,13,06,17.70
2014,06,10,13,07,17.70
2014,06,10,13,08,17.70
2014,06,10,13,09,17.70
2014,06,10,13,10,17.80
2014,06,10,13,11,17.80
2014,06,10,13,12,17.80
2014,06,10,13,13,17.80
2014,06,10,13,14,17.80
2014,06,10,13,15,17.70
2014,06,10,13,16,17.70
2014,06,10,13,17,17.60
2014,06,10,13,18,17.60
2014,06,10,13,19,17.60
2014,06,10,13,20,17.50
2014,06,10,13,21,17.40
2014,06,10,13,22,17.30
2014,06,10,13,23,17.30
2014,06,10,13,24,17.30
2014,06,10,13,25,17.30
2014,06,10,13,26,17.30
2014,06,10,13,27,17.40
2014,06,10,13,28,17.40
2014,06,10,13,29,17.40
2014,06,10,13,30,17.40
2014,06,10,13,31,17.40
2014,06,10,13,32,17.40
2014,06,10,13,33,17.40
2014,06,10,13,34,17.40
2014,06,10,13,35,17.40
2014,06,10,13,36,17.30
2014,06,10,13,37,17.20
2014,06,10,13,38,17.20
2014,06,10,13,39,17.20
2014,06,10,13,40,17.10
2014,06,10,13,41,17.10
2014,06,10,13,42,17.10
2014,06,10,13,43,17.10
2014,06,10,13,44,17.10
2014,06,10,13,45,17.10
2014,06,10,13,46,17.20
2014,06,10,13,47,17.20
2014,06,10,13,48,17.30
2014,06,10,13,49,17.30
2014,06,10,13,50,17.30
2014,06,10,13,51,17.20
2014,06,10,13,52,17.20
2014,06,10,13,53,17.20
2014,06,10,13,54,17.30
2014,06,10,13,55,17.30
2014,06,10,13,56,17.30
2014,06,10,13,57,17.30
2014,06,10,13,58,17.30
2014,06,10,13,59,17.30
2014,06,10,14,00,17.40
2014,06,10,14,01,17.50
2014,06,10,14,02,17.50
2014,06,10,14,03,17.70
2014,06,10,14,04,17.70
2014,06,10,14,05,17.80
2014,06,10,14,06,17.80
2014,06,10,14,07,17.80
2014,06,10,14,08,17.80
2014,06,10,14,09,17.80
2014,06,10,14,10,17.80
2014,06,10,14,11,17.80
2014,06,10,14,12,17.90
2014,06,10,14,13,18.00
2014,06,10,14,14,18.10
2014,06,10,14,15,18.20
2014,06,10,14,16,18.20
2014,06,10,14,17,18.20
2014,06,10,14,18,18.10
2014,06,10,14,19,18.10
2014,06,10,14,20,18.10
2014,06,10,14,21,18.00
2014,06,10,14,22,18.00
2014,06,10,14,23,18.10
2014,06,10,14,24,18.10
2014,06,10,14,25,18.10
2014,06,10,14,26,18.30
2014,06,10,14,27,18.40
2014,06,10,14,28,18.50
2014,06,10,14,29,18.50
2014,06,10,14,30,18.40
2014,06,10,14,31,18.50
2014,06,10,14,32,18.50
2014,06,10,14,33,18.50
2014,06,10,14,34,18.50
2014,06,10,14,35,18.50
2014,06,10,14,36,18.40
2014,06,10,14,37,18.50
2014,06,10,14,38,18.50
2014,06,10,14,39,18.60
2014,06,10,14,40,18.60
2014,06,10,14,41,18.60
2014,06,10,14,42,18.60
2014,06,10,14,43,18.40
2014,06,10,14,44,18.30
2014,06,10,14,45,18.20
2014,06,10,14,46,18.20
2014,06,10,14,47,18.20
2014,06,10,14,48,18.20
2014,06,10,14,49,18.20
2014,06,10,14,50,18.30
2014,06,10,14,51,18.20
2014,06,10,14,52,18.20
2014,06,10,14,53,18.20
2014,06,10,14,54,18.20
2014,06,10,14,55,18.30
2014,06,10,14,56,18.30
2014,06,10,14,57,18.30
2014,06,10,14,58,18.20
2014,06,10,14,59,18.20
2014,06,10,15,00,18.10
2014,06,10,15,01,18.10
2014,06,10,15,02,18.10
2014,06,10,15,03,18.00
2014,06,10,15,04,18.00
2014,06,10,15,05,18.00
2014,06,10,15,06,18.00
2014,06,10,15,07,18.10
2014,06,10,15,08,18.10
2014,06,10,15,09,18.20
2014,06,10,15,10,18.20
2014,06,10,15,11,18.30
2014,06,10,15,12,18.30
2014,06,10,15,13,18.30
2014,06,10,15,14,18.30
2014,06,10,15,15,18.30
2014,06,10,15,16,18.30
2014,06,10,15,17,18.30
2014,06,10,15,18,18.30
2014,06,10,15,19,18.30
2014,06,10,15,20,18.30
2014,06,10,15,21,18.30
2014,06,10,15,22,18.30
2014,06,10,15,23,18.20
2014,06,10,15,24,18.10
2014,06,10,15,25,18.10
2014,06,10,15,26,18.00
2014,06,10,15,27,17.90
2014,06,10,15,28,17.90
2014,06,10,15,29,17.80
2014,06,10,15,30,17.80
2014,06,10,15,31,17.90
2014,06,10,15,32,17.90
2014,06,10,15,33,17.80
2014,06,10,15,34,17.80
2014,06,10,15,35,17.70
2014,06,10,15,36,17.70
2014,06,10,15,37,17.70
2014,06,10,15,38,17.70
2014,06,10,15,39,17.70
2014,06,10,15,40,17.70
2014,06,10,15,41,17.70
2014,06,10,15,42,17.60
2014,06,10,15,43,17.60
2014,06,10,15,44,17.60
2014,06,10,15,45,17.60
2014,06,10,15,46,17.60
2014,06,10,15,47,17.70
2014,06,10,15,48,17.70
2014,06,10,15,49,17.80
2014,06,10,15,50,18.00
2014,06,10,15,51,18.10
2014,06,10,15,52,18.10
2014,06,10,15,53,18.10
2014,06,10,15,54,18.10
2014,06,10,15,55,18.10
2014,06,10,15,56,18.10
2014,06,10,15,57,18.20
2014,06,10,15,58,18.20
2014,06,10,15,59,18.20
2014,06,10,16,00,18.20
2014,06,10,16,01,18.20
2014,06,10,16,02,18.20
2014,06,10,16,03,18.10
2014,06,10,16,04,18.20
2014,06,10,16,05,18.20
2014,06,10,16,06,18.30
2014,06,10,16,07,18.40
2014,06,10,16,08,18.40
2014,06,10,16,09,18.50
2014,06,10,16,10,18.50
2014,06,10,16,11,18.60
2014,06,10,16,12,18.50
2014,06,10,16,13,18.50
2014,06,10,16,14,18.50
2014,06,10,16,15,18.40
2014,06,10,16,16,18.30
2014,06,10,16,17,18.30
2014,06,10,16,18,18.30
2014,06,10,16,19,18.20
2014,06,10,16,20,18.20
2014,06,10,16,21,18.20
2014,06,10,16,22,18.20
2014,06,10,16,23,18.20
2014,06,10,16,24,18.10
2014,06,10,16,25,18.10
2014,06,10,16,26,18.10
2014,06,10,16,27,18.00
2014,06,10,16,28,18.10
2014,06,10,16,29,18.10
2014,06,10,16,30,18.10
2014,06,10,16,31,18.10
2014,06,10,16,32,18.10
2014,06,10,16,33,18.20
2014,06,10,16,34,18.30
2014,06,10,16,35,18.30
2014,06,10,16,36,18.20
2014,06,10,16,37,18.10
2014,06,10,16,38,18.00
2014,06,10,16,39,18.00
2014,06,10,16,40,17.90
2014,06,10,16,41,17.90
2014,06,10,16,42,17.90
2014,06,10,16,43,17.90
2014,06,10,16,44,17.90
2014,06,10,16,45,17.90
2014,06,10,16,46,17.90
2014,06,10,16,47,17.80
2014,06,10,16,48,17.80
2014,06,10,16,49,17.80
2014,06,10,16,50,17.80
2014,06,10,16,51,17.80
2014,06,10,16,52,17.80
2014,06,10,16,53,17.90
2014,06,10,16,54,17.90
2014,06,10,16,55,17.90
2014,06,10,16,56,17.90
2014,06,10,16,57,17.90
2014,06,10,16,58,17.90
2014,06,10,16,59,18.00
2014,06,10,17,00,18.00
2014,06,10,17,01,18.10
2014,06,10,17,02,18.10
2014,06,10,17,03,18.10
2014,06,10,17,04,18.20
2014,06,10,17,05,18.10
2014,06,10,17,06,18.10
2014,06,10,17,07,18.00
2014,06,10,17,08,17.90
2014,06,10,17,09,17.90
2014,06,10,17,10,17.90
2014,06,10,17,11,17.80
2014,06,10,17,12,17.80
2014,06,10,17,13,17.70
2014,06,10,17,14,17.70
2014,06,10,17,15,17.70
2014,06,10,17,16,17.70
2014,06,10,17,17,17.70
2014,06,10,17,18,17.70
2014,06,10,17,19,17.70